OBJECT H, 55016

Orbit data source: Space-Track

You're viewing an Uncataloged Satellite

Recently launched and/or uncataloged satellites may have evolving metadata. Metadata may include but not limited to: Owner, Maufacturer, Bus, Motor, and Mission.

OBJECT H, 55016 is a satellite in SSO that was launched on Tue, 03 Jan 2023 UTC via an FALCON 9 launch vehicle from the Air Force Eastern Test Range (AFETR). Unknown objects in Earth's orbit typically refer to objects detected orbiting the Earth but have not yet been identified or cataloged. These objects could be anything from previously untracked satellites, spent rocket stages, debris from satellite collisions, or even natural meteoroids temporarily captured by Earth's gravity.

Loading next visibility...
Identifier
55016, 2023-001H
Orbit
SSO
Country
Flag of TBDTBD
Related business
None
Manufacturer
Unknown
Mission
Non-operational Commercial Technology
Bus & Motor
Unknown
Mass
Unknown
Launch date (UTC)
2023-01-03 (3 years ago)
Launch vehicle
FALCON 9
Launch site
Air Force Eastern Test Range (AFETR)
Object type
Unknown
Shape & HBR
Box + 2 Pan, 0.1 m
Radar Cross Section
0.080 m², Medium (>0.1 m² and < 1m²)

Expand to show TLE details & history
Last TLE update: 10 hours ago

TLE from 10 hours ago
0 OBJECT H
1 55016U 23001H   26036.41831627  .00020556  00000-0  55158-3 0  9997
2 55016  97.3346 100.4955 0006164 215.9256 144.1576 15.37966232171946
Epoch: 2026-02-05T10:02Z
TLE epoch observation values (Epoch: 2026-02-05T10:02:22.525Z)
Latitude
0.00002°
Longitude
174.33081°
Altitude
458.655 km
Speed
7.636 km/s
True Right ascension
06h 41m 58s
True Declination
0° 00' 00"
Sunlit
Object was in full shadow at epoch
Visualization orbit readout
Latitude
Unknown
Longitude
Unknown
Altitude
Unknown
Speed
Unknown
Apparent Right ascension
Unknown
Apparent Declination
Unknown
Sunlit
N/A
Visualization observer readout
Local Sidereal Time
22:16:00
Azimuth
Unknown
Elevation
Unknown
Doppler factor
Unknown
Orbital elements
Apogee altitude
453.271 km
Perigee altitude
444.855 km
Semi-major axis
6,827.2 km
Eccentricity
0.00062
Inclination
97.3346°
RAAN
100.4955°
Arg. of periapsis
215.9256°
True anomaly
144.19893°
Mean anomaly
144.1576°
Eccentric anomaly
144.17827°
Mean motion
3.84751 °/min
Orbital period
93.57 mins
BSTAR
0.00055158
Loading maneuver chart data...
Computing Atmospheric mass density...

Documentation

Showing up to 5 results
|